Wind_Speed
9 9 9 9 8 7 7 7 6 6 6 7 7 7 7 7 6 6 6 6 6 6 6 6 6 6 6 6 5 5 5 5 4 4 3 3 3 3 4 4 4 5 5
10 9 9 9 8 7 7 7 6 7 7 7 8 8 7 7 7 7 7 7 8 8 8 8 7 7 7 6 6 6 5 5 5 4 4 4 3 4 4 4 5 5 6
9 9 9 9 9 8 7 7 7 8 8 8 8 9 8 8 8 8 8 9 8 9 9 8 8 8 7 6 6 6 6 5 5 5 5 5 5 5 5 4 5 7 6
9 9 9 9 9 9 8 8 8 8 9 9 9 10 10 9 9 9 10 10 10 9 9 9 9 9 8 7 7 7 7 7 7 6 6 6 6 6 6 6 6 7 7
9 9 10 10 10 9 9 9 9 9 9 9 10 10 11 10 10 10 11 11 10 10 9 9 9 9 8 8 8 8 8 8 8 7 7 7 7 7 7 7 7 8 8
10 9 10 11 11 10 10 10 10 10 10 10 10 11 11 11 11 11 11 11 11 10 10 10 9 9 9 9 9 9 10 9 8 8 8 8 8 8 8 9 8 9 8
11 11 11 11 11 11 11 11 11 10 11 11 11 11 11 10 11 11 11 11 11 11 10 10 10 10 10 10 10 10 10 10 10 9 9 9 10 10 10 10 9 9 9
12 12 12 12 11 11 12 12 12 11 11 11 11 12 12 11 11 11 11 11 11 11 11 11 11 11 10 11 11 11 10 10 11 10 10 10 11 11 11 10 10 10 10
14 14 13 12 12 12 11 12 12 11 11 11 11 12 12 11 11 11 11 11 11 11 11 11 11 11 11 12 12 12 11 11 11 11 11 10 11 11 12 12 11 11 11
15 15 14 12 12 11 10 10 10 11 11 11 11 12 12 12 11 11 11 11 11 12 12 12 12 12 12 12 13 13 13 12 12 12 12 11 11 12 12 12 12 12 12
14 15 13 12 11 10 10 10 10 11 11 11 11 11 12 12 12 11 11 11 11 12 12 13 14 13 13 13 13 13 13 13 13 13 13 13 12 13 13 13 13 13 13
14 14 13 12 11 10 10 10 10 11 12 12 12 11 11 12 12 12 12 12 12 12 13 13 13 13 13 13 14 13 14 14 14 14 14 14 14 14 14 14 14 13 13
14 14 13 12 12 10 10 10 10 10 11 12 12 11 11 12 13 13 13 13 12 12 13 14 13 12 12 13 13 14 14 15 15 15 15 15 15 14 14 15 14 14 14
13 13 12 12 12 10 10 10 10 10 10 11 11 11 11 12 13 13 13 13 13 13 13 13 14 13 12 13 14 14 14 15 16 15 15 15 16 16 15 16 16 15 15
13 12 11 12 11 10 10 10 10 10 10 10 10 11 11 12 13 13 13 14 13 13 13 13 14 13 13 14 14 15 16 16 17 16 16 16 17 17 17 17 17 16 16
12 11 10 10 10 10 10 11 10 10 9 8 9 10 11 12 12 12 12 13 13 14 14 14 15 14 14 14 15 16 16 17 17 17 17 17 16 16 17 18 18 18 17
11 10 9 9 9 9 10 10 10 10 9 10 10 11 11 11 11 12 12 13 14 14 14 14 14 15 15 15 16 16 16 17 17 17 16 16 16 16 17 18 19 19 19
11 10 9 8 9 9 9 10 10 10 10 10 11 11 11 11 11 11 12 13 13 14 14 14 14 15 15 15 15 15 15 16 16 17 16 15 15 16 17 17 18 19 19
10 10 9 9 9 9 9 9 9 9 10 10 10 11 11 10 10 11 12 12 13 13 13 13 13 14 14 14 15 15 15 16 16 17 16 16 16 16 17 18 19 19 19
11 11 10 10 10 9 9 9 9 9 10 10 11 11 10 11 11 11 11 12 13 13 13 12 13 13 14 14 15 15 16 16 16 16 16 16 17 17 18 18 19 19 20
12 13 12 11 11 10 10 10 10 10 10 10 10 11 10 11 11 12 13 13 13 13 12 12 13 14 14 15 15 15 15 15 15 16 16 17 17 18 18 19 20 20 20
13 13 13 12 12 10 10 11 11 12 11 11 11 12 11 11 11 12 13 13 13 13 13 13 13 14 15 15 15 15 15 15 16 17 17 18 18 18 19 19 20 21 21
13 14 15 13 12 11 11 11 12 12 12 12 12 12 11 11 12 13 13 14 14 14 14 13 14 15 15 15 15 16 15 16 16 17 17 17 18 19 19 20 21 22 22
13 13 13 11 11 11 11 11 11 11 11 11 11 11 11 12 12 12 13 13 13 14 15 14 14 14 14 15 16 17 17 17 16 17 18 19 19 19 19 20 20 22 23
12 12 11 10 10 10 10 11 11 11 10 11 12 12 12 11 12 12 13 14 14 14 14 14 14 14 14 15 15 16 16 17 17 18 18 19 20 20 20 20 21 22 23
12 11 10 10 10 10 11 11 11 11 11 11 11 12 11 12 12 13 13 12 13 13 13 14 14 13 13 14 14 15 15 16 17 18 18 18 19 20 20 21 21 22 23
Wind_Direction
334 331 326 325 324 321 320 319 327 323 321 320 321 319 317 314 308 308 310 306 301 299 297 294 295 291 287 287 288 287 289 287 273 269 270 254 233 222 221 229 232 225 227
327 325 322 321 320 316 310 309 309 312 314 312 312 312 311 307 303 301 301 299 295 291 294 293 290 289 287 278 276 284 287 287 279 271 266 260 246 235 227 236 237 235 234
326 323 318 314 315 314 310 306 304 302 304 304 303 302 302 300 296 297 295 293 293 289 288 288 287 284 281 277 276 276 278 277 282 274 264 257 252 248 243 248 243 240 241
324 322 319 315 314 314 312 307 304 300 297 295 295 294 293 292 291 293 292 287 286 283 281 281 281 279 274 272 270 268 272 275 276 271 268 265 258 251 248 251 251 250 246
323 321 318 316 315 312 307 303 300 298 293 292 292 289 287 287 287 288 288 285 283 278 278 276 277 276 270 268 267 266 269 272 271 266 266 265 262 257 251 248 246 249 247
318 317 316 315 314 308 304 299 296 294 291 290 290 289 287 286 286 285 283 281 281 277 274 273 272 269 269 265 268 270 267 263 264 267 267 265 264 257 255 249 246 244 242
317 315 312 312 312 309 303 299 293 290 289 288 288 287 284 282 282 282 280 277 276 273 270 269 269 270 269 265 269 271 270 264 261 263 266 264 262 259 256 250 250 249 244
315 315 317 313 310 307 301 299 294 290 289 288 287 285 282 279 278 278 278 276 273 270 265 265 269 268 270 270 272 273 269 266 265 267 266 262 261 258 255 251 255 254 248
314 314 315 313 311 304 296 295 295 291 290 287 285 282 278 276 276 276 273 273 272 268 264 264 266 266 268 269 272 271 269 265 264 264 265 265 264 260 255 253 254 253 252
313 310 310 312 312 306 298 293 291 290 288 288 286 282 279 273 273 272 269 270 272 269 267 265 264 266 267 268 270 270 268 266 263 262 262 262 261 261 259 256 254 253 253
312 310 305 307 308 306 302 291 286 287 286 287 289 281 276 269 269 268 268 269 273 273 270 266 264 266 267 268 268 267 266 267 265 262 260 260 257 260 257 256 256 255 254
313 312 308 308 309 303 299 295 285 284 285 286 287 284 275 268 267 266 268 269 271 272 272 269 265 268 268 269 269 267 266 266 263 260 259 258 258 259 256 254 255 256 256
313 312 310 312 311 304 299 297 289 284 283 283 283 283 277 269 266 266 268 269 270 271 273 272 267 269 271 271 269 268 266 264 261 261 258 256 257 256 254 253 256 259 259
312 312 309 309 309 303 295 295 291 287 284 283 283 278 274 271 266 269 271 273 272 273 274 272 265 268 270 271 268 266 265 263 261 260 259 259 257 256 253 254 255 257 258
314 313 311 310 308 303 294 291 289 287 289 286 280 278 275 274 273 271 269 274 272 276 276 274 267 269 270 269 265 266 264 262 260 259 259 260 258 255 252 252 255 255 256
311 311 311 312 311 305 296 291 289 289 288 286 282 275 273 276 275 271 269 271 271 273 274 272 270 266 267 267 266 267 266 265 262 260 258 259 258 255 252 254 256 256 256
309 314 309 309 312 308 298 294 292 288 286 285 287 282 276 273 276 274 270 272 271 270 271 272 271 269 265 265 266 267 265 265 264 264 260 258 256 255 257 256 255 256 255
309 313 310 311 313 309 303 299 296 288 290 289 288 286 283 278 275 276 274 273 272 271 272 275 273 270 268 269 267 266 266 266 264 266 262 260 259 256 257 257 258 258 257
308 307 303 304 308 305 303 302 298 289 288 290 289 287 283 280 276 276 278 273 273 274 272 272 269 268 271 272 271 268 268 268 268 268 264 261 261 261 259 258 258 258 258
303 302 296 297 301 297 298 303 299 293 290 289 287 287 283 277 272 277 281 276 275 275 274 271 268 268 272 275 275 274 274 272 268 265 264 265 264 264 263 263 261 259 257
300 300 293 294 294 293 294 294 293 289 287 287 287 286 282 278 274 275 277 276 273 272 274 271 271 271 273 275 277 277 275 272 267 265 266 266 266 267 266 265 264 261 260
296 296 290 288 286 286 288 287 289 287 284 284 284 284 283 283 279 278 277 275 270 269 270 272 272 274 274 274 276 276 274 270 269 267 267 268 266 266 266 267 267 265 261
290 291 292 285 282 279 283 290 290 288 283 285 288 288 288 288 288 280 278 274 270 270 275 276 274 275 275 274 274 273 273 271 271 270 269 270 270 268 267 266 265 263 262
288 287 290 283 281 279 282 288 290 285 282 283 288 291 288 291 290 285 280 275 273 275 278 281 279 278 278 277 277 275 276 275 273 272 272 271 271 269 268 268 264 263 264
287 288 286 280 281 281 286 288 288 288 285 283 287 287 288 290 289 286 281 276 273 276 279 278 277 278 278 278 280 278 277 278 275 273 273 273 270 267 267 268 267 266 266
278 283 278 277 278 280 283 287 289 288 287 286 288 289 288 286 284 283 280 276 273 276 277 276 277 277 280 282 282 283 283 281 278 276 274 273 271 267 267 268 269 270 269
Height
5873 5872 5872 5871 5871 5870 5870 5869 5869 5869 5869 5869 5869 5870 5870 5870 5871 5871 5871 5872 5872 5872 5873 5873 5874 5874 5875 5875 5876 5876 5876 5876 5877 5878 5878 5878 5879 5879 5880 5881 5882 5883 5883
5872 5871 5871 5870 5870 5869 5869 5868 5868 5868 5868 5868 5868 5869 5869 5869 5870 5870 5870 5870 5871 5871 5872 5872 5873 5873 5874 5874 5875 5875 5875 5876 5877 5877 5877 5878 5878 5879 5880 5881 5882 5882 5883
5871 5870 5869 5869 5868 5867 5867 5867 5867 5867 5867 5867 5867 5867 5868 5868 5868 5869 5869 5869 5869 5870 5870 5871 5871 5872 5872 5873 5873 5874 5874 5875 5876 5876 5877 5877 5878 5879 5879 5880 5881 5882 5883
5869 5869 5868 5867 5867 5866 5865 5865 5865 5865 5865 5865 5865 5865 5866 5866 5866 5867 5867 5867 5867 5868 5868 5869 5869 5870 5871 5871 5872 5872 5873 5874 5874 5874 5875 5876 5877 5878 5879 5879 5880 5881 5882
5868 5867 5867 5866 5865 5864 5864 5863 5863 5863 5863 5863 5863 5863 5864 5864 5864 5865 5865 5865 5866 5866 5867 5867 5868 5868 5869 5870 5870 5871 5872 5872 5873 5873 5874 5875 5876 5877 5878 5878 5879 5880 5881
5866 5866 5865 5864 5863 5862 5862 5861 5861 5861 5861 5861 5861 5861 5861 5862 5862 5862 5863 5863 5864 5864 5865 5865 5866 5867 5867 5868 5869 5869 5870 5870 5871 5872 5873 5874 5874 5875 5876 5877 5877 5878 5879
5865 5864 5863 5862 5861 5860 5860 5859 5858 5858 5858 5858 5858 5859 5859 5859 5860 5860 5860 5861 5861 5862 5863 5863 5864 5865 5865 5866 5867 5867 5868 5869 5869 5870 5871 5872 5872 5873 5874 5875 5875 5876 5877
5863 5861 5860 5859 5858 5857 5857 5856 5856 5856 5856 5855 5856 5856 5856 5857 5857 5857 5858 5858 5859 5860 5860 5861 5862 5862 5863 5864 5864 5865 5866 5867 5867 5868 5869 5869 5870 5871 5872 5872 5873 5874 5876
5859 5858 5857 5856 5855 5854 5853 5853 5853 5853 5853 5853 5853 5853 5854 5854 5854 5854 5855 5856 5856 5857 5858 5859 5859 5860 5861 5861 5862 5862 5863 5864 5865 5866 5866 5867 5868 5868 5869 5870 5871 5872 5874
5856 5855 5855 5854 5852 5851 5851 5851 5851 5850 5850 5850 5850 5850 5851 5851 5851 5852 5852 5853 5854 5855 5855 5856 5857 5857 5858 5858 5859 5860 5861 5861 5862 5863 5864 5865 5865 5866 5867 5868 5869 5870 5871
5853 5852 5851 5851 5850 5849 5848 5848 5848 5848 5848 5847 5848 5848 5848 5849 5849 5849 5850 5851 5851 5852 5853 5853 5854 5854 5855 5855 5856 5857 5857 5859 5859 5860 5861 5862 5862 5863 5864 5865 5866 5868 5869
5851 5850 5848 5847 5847 5846 5846 5846 5846 5845 5845 5845 5845 5845 5845 5845 5846 5847 5847 5848 5849 5849 5850 5850 5851 5851 5852 5852 5853 5853 5854 5855 5856 5857 5858 5859 5859 5860 5861 5862 5863 5865 5866
5849 5847 5845 5844 5844 5843 5843 5843 5843 5843 5843 5842 5842 5842 5842 5843 5844 5844 5845 5845 5846 5846 5847 5847 5848 5848 5848 5849 5849 5850 5851 5852 5853 5854 5854 5855 5856 5857 5858 5859 5860 5861 5863
5846 5844 5843 5842 5841 5841 5841 5841 5841 5840 5840 5840 5839 5839 5839 5840 5841 5841 5842 5842 5843 5843 5844 5844 5845 5845 5845 5846 5846 5847 5848 5848 5849 5850 5851 5852 5852 5853 5854 5855 5857 5858 5859
5843 5842 5840 5839 5838 5838 5838 5838 5838 5838 5837 5837 5837 5837 5837 5837 5838 5838 5838 5839 5840 5840 5840 5841 5841 5842 5842 5843 5843 5844 5845 5845 5845 5846 5847 5848 5848 5849 5851 5852 5853 5854 5855
5840 5839 5838 5837 5836 5836 5836 5836 5836 5835 5835 5834 5834 5834 5834 5834 5835 5835 5835 5836 5836 5837 5837 5837 5838 5838 5838 5839 5840 5840 5841 5841 5842 5843 5843 5844 5844 5845 5846 5847 5848 5850 5851
5838 5837 5836 5835 5835 5834 5834 5834 5834 5833 5832 5832 5832 5832 5832 5832 5832 5832 5832 5832 5833 5833 5833 5833 5834 5834 5834 5835 5835 5836 5836 5837 5838 5839 5839 5840 5840 5841 5842 5843 5844 5845 5846
5836 5835 5834 5833 5833 5832 5832 5832 5831 5831 5830 5830 5830 5829 5829 5829 5829 5829 5829 5829 5829 5830 5830 5830 5830 5830 5830 5831 5831 5831 5832 5833 5834 5834 5835 5836 5836 5836 5837 5838 5838 5840 5841
5834 5833 5832 5831 5831 5830 5830 5829 5829 5829 5828 5828 5827 5827 5826 5826 5826 5825 5825 5825 5826 5826 5826 5826 5826 5826 5827 5827 5828 5828 5828 5829 5829 5830 5831 5831 5832 5832 5833 5833 5834 5834 5835
5833 5832 5830 5829 5828 5828 5827 5827 5827 5827 5826 5825 5825 5824 5823 5823 5822 5822 5822 5822 5822 5822 5822 5822 5823 5822 5823 5823 5824 5824 5824 5825 5825 5825 5826 5826 5827 5827 5828 5828 5829 5830 5830
5830 5829 5828 5827 5826 5826 5825 5825 5825 5824 5823 5823 5822 5821 5820 5820 5819 5819 5819 5819 5819 5819 5819 5819 5819 5819 5819 5819 5820 5820 5820 5820 5821 5821 5821 5822 5822 5822 5822 5823 5824 5824 5825
5828 5826 5826 5825 5824 5823 5823 5823 5822 5822 5821 5820 5819 5818 5817 5816 5816 5816 5816 5816 5816 5816 5816 5816 5815 5815 5815 5815 5815 5815 5816 5817 5816 5816 5816 5816 5816 5816 5817 5818 5818 5818 5819
5825 5823 5823 5822 5821 5820 5820 5820 5819 5818 5818 5817 5816 5815 5815 5814 5813 5813 5813 5813 5813 5813 5812 5812 5812 5812 5811 5811 5811 5811 5811 5811 5811 5811 5811 5811 5810 5811 5811 5812 5812 5813 5813
5821 5820 5819 5818 5818 5818 5817 5817 5816 5815 5814 5814 5814 5813 5812 5811 5810 5810 5810 5809 5809 5809 5809 5808 5808 5807 5807 5807 5806 5806 5806 5806 5806 5805 5805 5805 5805 5805 5806 5806 5807 5807 5808
5818 5817 5816 5815 5815 5815 5815 5814 5813 5813 5812 5812 5811 5810 5809 5808 5808 5807 5806 5806 5806 5805 5805 5804 5804 5803 5803 5803 5802 5801 5801 5801 5800 5800 5799 5799 5799 5799 5800 5800 5801 5801 5801
5814 5814 5813 5813 5812 5812 5812 5811 5810 5810 5809 5808 5808 5807 5806 5805 5805 5804 5803 5802 5802 5801 5801 5801 5800 5800 5799 5798 5798 5797 5796 5795 5795 5794 5794 5793 5793 5794 5794 5795 5795 5795 5795